Location: Chippewa Lake
(41.0698°N, 81.9010°W)
Time: 02:17:40
(UTC+00:00)

Cosmos 1833 Rocket - Pass Details

Date: 09 May 2021
Orbit: 831 x 841 km, 71.0° (Epoch: 24 June)

Event Time Altitude Azimuth Distance (km) Brightness Sun altitude
Rises 04:36:25 0° 322° (NW) 3,402 6.8 -30.5°
Reaches altitude 10° 04:39:22 10° 308° (NW) 2,463 5.7 -30.6°
Enters shadow 04:43:01 22° 268° (W) 1,766 4.4 -30.7°
